Regional Weather Roundup
Issued by NWS

Home | Current Version | Previous Version | Text Only | Print | Product List | Glossary On
Versions: 1 2 3 4 5 6 7 8 9 10 11 12 13 14 15 16 17 18 19 20 21 22 23 24 25 26 27 28
000
ASUS42 KFFC 302303
RWRGA
WEATHER ROUNDUP FOR GEORGIA
NATIONAL WEATHER SERVICE PEACHTREE CITY GA
700 PM EDT THU OCT 30 2014

NOTE: "FAIR" INDICATES FEW OR NO CLOUDS BELOW 12,000 FEET WITH NO
SIGNIFICANT WEATHER AND/OR OBSTRUCTIONS TO VISIBILITY.

* = USE WITH CAUTION. THE STATIONS MARKED WITH AN ASTERISK MAY NOT
REPORT WEATHER SUCH AS PRECIPITATION, FOG, OR THUNDER AND ARE NOT
QUALITY CONTROLLED BY NWS.

THE REMARK "TC" DENOTES TEMPERATURE READING IN DEGREES CELSIUS.

GAZ001>058-310000-
NORTH GEORGIA

CITY           SKY/WX    TMP DP  RH WIND       PRES   REMARKS
ATLANTA        CLEAR     61  36  39 NW7       29.99R
ATHENS         CLEAR     59  40  49 CALM      29.97S
CHAMBLEE       CLEAR     59  32  36 NW6       29.99R
PEACHTREE CITY CLEAR     55  46  71 CALM      30.00R
ROME           CLEAR     57  42  57 CALM      30.00R
WEST ATLANTA   CLEAR     59  38  45 NW3       29.99R
GAINESVILLE    CLEAR     57  39  51 SW5       29.99S
CARTERSVILLE   CLEAR     55  40  56 CALM      30.01R


CITY           SKY/WX    TMP DP  RH WIND       PRES   REMARKS
DALTON*        CLEAR     55  43  62 CALM      30.00S
LAWRENCEVILLE* CLEAR     61  36  39 W6        29.98R
MARIETTA       CLEAR     57  38  49 W7        30.00R
KENNESAW*      CLEAR     61  36  39 NW5       30.02R
$$

GAZ059>098-102>109-310000-
CENTRAL GEORGIA

CITY           SKY/WX    TMP DP  RH WIND       PRES   REMARKS
AUGUSTA-BUSH   CLEAR     62  45  53 N5        29.95R
AUGUSTA-DANIEL CLEAR     67  41  38 N3        29.96R
COLUMBUS       CLEAR     65  39  38 N5        29.98R
MACON          CLEAR     63  43  48 NW5       29.96R
ROBINS AFB     CLEAR     61  49  63 N3        29.95R


CITY           SKY/WX    TMP DP  RH WIND       PRES   REMARKS
LAGRANGE*      CLEAR     61  45  56 NW3       29.99S
SYLVANIA*      CLEAR     68  63  82 CALM      29.94S
MILLEDGEVILLE* CLEAR     59  52  77 CALM      29.97R
$$

GAZ099>101-110>166-310000-
SOUTH GEORGIA

CITY           SKY/WX    TMP DP  RH WIND       PRES   REMARKS
SAVANNAH       MOCLDY    70  59  68 E6        29.92S
VALDOSTA       CLEAR     61  52  72 CALM      29.92S
ALMA           CLEAR     64  51  62 CALM      29.91S
ST SIMONS      MOCLDY    69  64  84 NE7       29.90S
FT STEWART     CLOUDY    67  58  71 CALM      29.90S
ALBANY         CLEAR     64  51  62 CALM      29.97R
HUNTER AFB     PTCLDY    67  60  80 E5        29.90S
MOODY AFB      CLEAR     63  56  78 CALM      29.93R
BRUNSWICK      PTCLDY    68  63  83 NE6       29.91R


CITY           SKY/WX    TMP DP  RH WIND       PRES   REMARKS
BAINBRIDGE*    CLEAR     68  46  45 NW6       29.96R
MOULTRIE*      CLEAR     68  48  49 NW3       29.95R
VIDALIA*       CLEAR     64  55  72 NE3       29.93R
WAYCROSS*      CLEAR     69  55  61 NW3       29.91S
DOUGLAS*       CLEAR     70  45  40 CALM      29.93S
$$



USA.gov is the U.S. government's official web portal to all federal, state and local government web resources and services.